Vertical_Velocity
1 -1 -1 -1 -1 -1 -1 -1 -0 -0 0 1 -0 1 1 0 -0 -1 -1 -2 -1 -2 -0 -1 -2 -1 -1 -0 -0 -0 -0 -0 -1 -2 -1 -1 -3 -2 -2 -3 1 1 1 1 2
1 -0 -0 -1 -1 0 0 1 -0 -1 -2 -1 -0 -0 -1 -0 -1 1 -2 -2 -1 -1 -2 -2 -1 -1 -2 -1 1 2 0 -1 0 -1 -2 -2 -1 -3 -2 -3 -2 -2 -1 -1 0
-0 -0 -0 0 -0 0 -0 0 -0 -0 -0 0 -1 -1 -0 -1 -1 -2 -0 -2 -1 -1 -0 -0 -1 -0 0 -0 -1 -0 1 2 1 -0 0 1 -1 -1 -2 -2 -1 -2 -2 -1 -1
0 0 -1 -0 -0 0 -1 -1 -1 -0 0 -1 -1 -1 -0 -3 -1 -1 -2 -1 -1 -2 -1 -2 -2 -1 -0 -1 0 -0 0 -0 -0 1 1 -0 0 2 0 0 -0 0 1 2 2
-0 0 -0 -0 0 0 0 -1 -0 -1 -1 -1 -1 -1 -1 -1 -2 -1 -2 -2 -2 -2 -1 -2 -2 -2 -2 -1 0 1 2 -1 -2 -2 -0 0 1 0 0 3 0 0 1 -0 1
1 1 0 -0 0 -0 -1 -0 -2 -2 -1 -1 -1 -1 -2 -2 -1 -0 -1 -1 -1 -0 -1 -2 -2 -3 -0 -0 0 -0 -2 -0 -1 -2 -2 -3 -2 -1 3 1 4 -0 -0 1 2
-1 -1 -1 0 1 -0 -0 -1 -2 -0 -0 -1 -0 -1 -1 -2 -1 -1 -1 -1 -1 -1 -1 -1 -1 -1 -2 0 -1 -0 -2 0 -1 -2 -0 -2 -2 -0 1 3 1 3 0 -2 1
0 0 -0 -1 -0 -1 -1 -1 -1 1 -1 -2 -2 -2 -1 -1 -1 -1 -2 -2 -1 -1 -1 -2 -1 -1 -1 -1 -2 -2 -2 -4 3 2 -2 -2 -7 -1 2 -1 2 0 1 -4 -3
0 0 -1 -2 -1 -2 -1 -0 -2 -0 -2 -3 -1 -2 -0 -2 -2 -1 -2 -2 -1 -2 -1 -1 -1 -2 -1 -2 1 4 -3 -3 -4 -5 -2 -3 -4 6 0 1 1 2 2 2 1
-1 0 0 -1 -2 -1 -2 -0 -1 -0 -3 -3 -1 -1 -1 -1 -0 -0 -1 -1 -1 -2 -2 -1 -2 -2 -0 -3 -2 -1 -1 -2 -6 -1 -1 -3 0 -2 -1 -1 -1 1 0 1 3
-2 -1 -1 -1 -1 -0 -2 -1 -1 -1 -2 -1 -2 -1 -2 -1 -0 -1 -1 -1 -1 -2 -2 -1 -2 -2 -1 -2 -1 -1 -2 -2 -4 -2 -3 -1 -3 -4 -3 -2 -1 -1 -2 0 -1
-0 -0 -1 -1 -2 -3 -1 -2 -2 -3 -1 -1 -2 -2 -1 -2 -2 0 -1 -1 -1 -2 -2 -0 -1 -0 -0 -0 1 -1 1 -2 -2 -3 -3 -4 -5 -4 -3 -2 -2 -2 -0 -2 -3
-1 -1 -0 -0 -1 -0 -2 -2 -2 -1 -1 -1 -1 -1 -2 -2 -2 -4 -3 -3 -2 -1 -1 -1 -1 -0 -1 -0 -3 -0 -2 -2 -2 -1 -3 1 2 -1 -2 -3 -2 -2 -1 -0 1
-1 -2 -2 -2 -2 -2 -2 -3 -3 -2 -1 -1 -2 -1 -2 -2 -2 -3 -4 -1 -1 -1 1 1 -2 -4 -3 -3 -2 -2 -0 -1 0 -0 -7 -3 -6 -2 -0 -2 -4 -5 -6 -4 -4
-2 -2 -1 -2 -2 -1 -1 -2 -2 -1 -2 -1 -1 -2 -2 -2 -2 -1 -1 -2 -1 -1 -3 -4 -2 -1 -0 0 3 1 2 1 -0 -3 -3 5 4 4 -7 -4 -4 -3 -2 -3 -4
-1 0 -1 -0 -1 -2 -2 -2 -3 -2 -3 -3 -2 -2 -0 -2 -2 -0 1 0 1 -3 -2 -2 -2 -4 -2 -2 -5 1 1 2 4 0 4 -0 -4 1 -5 -3 -3 -4 -3 -3 -3
-1 -1 0 -1 -1 -2 -2 -1 -2 -1 -2 -3 -3 -1 -1 -1 -2 -4 -1 -3 -3 -3 -5 -5 -3 -2 -3 -3 0 -3 -6 -5 -1 2 -2 -5 -0 -2 -2 -2 -3 -3 -4 -3 -1
-1 -1 -1 -1 -1 -1 -1 -2 -1 -1 -3 -3 -2 -1 -2 -0 -0 -2 -1 -0 -2 -4 -2 -2 0 -0 -4 -5 -4 -3 -2 -4 -7 -6 5 -7 -5 -3 -3 -2 -1 -4 -3 -5 -4
-1 -1 -2 -1 -1 -1 -2 -2 -2 -1 -2 -1 -2 -1 0 0 -1 0 0 -2 -0 1 -1 -6 -1 -2 -0 -1 -4 -4 -5 -7 -4 2 3 8 0 3 -2 -3 -1 -2 -2 -2 -3
-0 -1 1 -0 -2 -2 -2 -2 -2 -1 -2 -2 -2 -1 -2 -2 -3 -4 -2 1 -2 -1 1 -1 0 -3 -1 0 -3 -1 -1 -5 -7 -11 -10 1 1 -3 1 -1 -0 -0 -2 -2 -3
-1 -1 -1 -1 -1 -2 -2 -0 -2 -1 0 -2 -1 -2 -2 1 -1 -4 -4 -2 -3 -1 -4 2 12 -3 -6 5 -3 -1 0 -2 -3 14 -3 -14 14 -5 -5 -2 -1 0 2 1 -1
-1 -1 -1 -1 -2 -0 -0 -0 1 -1 -1 -3 -2 -1 -0 -3 1 -2 1 -1 -5 -5 1 -2 -3 12 -2 -1 1 0 -1 1 -4 -13 -4 -9 25 4 -3 -3 -1 -5 -2 -2 2
-2 -2 -1 -2 -2 -2 -1 -1 -1 -2 -3 -1 -2 1 -0 -2 -4 -0 -2 0 -2 -2 -8 4 -7 -2 -5 0 9 -3 -1 -0 -2 -4 21 -5 -6 -2 -5 0 -1 4 3 -7 -0
-1 -1 -1 -1 -1 -1 -1 -1 -2 -1 -2 -2 -2 -1 -1 1 -2 -3 -3 1 -3 -5 -1 -7 7 10 -0 9 -11 3 -10 -5 1 -5 -9 6 -9 18 -5 -11 -9 -9 -26 7 2
-0 1 0 -2 -0 -1 -1 -0 -1 -2 0 -4 3 -1 -2 -2 2 2 3 -6 1 -0 1 -6 1 -1 2 -0 1 4 4 1 -6 -3 -17 14 -3 1 3 -5 -2 -1 3 -2 -1
0 -1 1 1 -0 -1 1 2 -0 -1 -1 2 -4 1 -1 -1 1 -4 -10 -8 10 -2 -4 3 -10 -3 17 3 -5 3 3 1 -4 16 -6 -7 -6 -14 11 2 0 -1 3 2 1
1 -1 -2 5 -0 -1 0 2 2 -3 5 -4 -3 -1 -3 -2 -0 1 -1 3 -1 -1 -7 7 1 -8 6 -1 0 18 5 1 12 1 -4 -5 3 -8 -2 -5 0 8 1 0 1
Height
5851 5851 5850 5850 5849 5849 5848 5847 5846 5845 5844 5843 5841 5839 5837 5835 5833 5830 5828 5826 5823 5820 5817 5814 5811 5808 5805 5802 5800 5797 5795 5791 5788 5785 5781 5778 5774 5771 5769 5769 5769 5768 5768 5769 5768
5854 5853 5853 5852 5851 5850 5849 5848 5847 5846 5844 5843 5841 5839 5838 5835 5833 5831 5828 5825 5823 5821 5818 5815 5812 5808 5805 5802 5799 5796 5793 5790 5787 5783 5780 5777 5774 5770 5768 5767 5766 5765 5765 5764 5763
5856 5855 5854 5853 5852 5851 5849 5848 5846 5845 5844 5842 5841 5840 5838 5836 5834 5831 5828 5826 5823 5820 5818 5815 5812 5809 5805 5802 5799 5795 5792 5788 5785 5782 5778 5776 5773 5770 5767 5765 5763 5762 5761 5760 5759
5858 5857 5857 5855 5854 5852 5851 5849 5847 5846 5844 5843 5841 5840 5839 5837 5836 5831 5829 5826 5823 5820 5817 5814 5812 5808 5804 5801 5798 5794 5791 5787 5783 5779 5777 5774 5771 5768 5766 5763 5761 5759 5758 5757 5756
5861 5861 5860 5858 5857 5855 5853 5851 5850 5848 5846 5844 5842 5841 5839 5838 5835 5831 5828 5826 5823 5820 5817 5814 5811 5807 5803 5800 5796 5792 5788 5785 5782 5778 5774 5771 5768 5765 5763 5761 5759 5757 5755 5754 5752
5864 5863 5862 5861 5859 5858 5856 5854 5852 5850 5847 5845 5843 5842 5840 5838 5834 5831 5828 5826 5823 5820 5817 5813 5809 5806 5802 5798 5795 5791 5787 5783 5779 5776 5772 5768 5765 5761 5760 5757 5755 5754 5752 5750 5747
5866 5865 5864 5863 5862 5860 5858 5857 5854 5851 5849 5847 5845 5843 5841 5839 5836 5833 5830 5827 5823 5820 5816 5812 5808 5805 5801 5796 5792 5788 5785 5780 5776 5773 5769 5766 5762 5759 5756 5753 5751 5748 5745 5742 5740
5868 5867 5866 5865 5864 5862 5861 5858 5856 5853 5851 5849 5846 5844 5841 5839 5836 5833 5830 5827 5823 5819 5815 5812 5808 5804 5800 5795 5791 5787 5783 5778 5774 5770 5766 5763 5758 5756 5751 5748 5744 5741 5737 5734 5732
5870 5869 5868 5867 5866 5864 5862 5859 5857 5855 5853 5850 5847 5844 5842 5839 5837 5834 5830 5826 5822 5818 5814 5811 5807 5803 5798 5794 5790 5785 5780 5775 5771 5767 5763 5760 5756 5753 5747 5742 5738 5735 5733 5729 5727
5871 5870 5869 5868 5867 5865 5863 5860 5858 5856 5854 5851 5848 5846 5842 5840 5836 5833 5829 5825 5821 5817 5813 5810 5806 5802 5797 5792 5788 5783 5779 5773 5769 5766 5761 5757 5753 5748 5743 5739 5734 5730 5729 5725 5722
5873 5871 5870 5868 5867 5865 5863 5861 5861 5858 5854 5852 5849 5845 5842 5840 5836 5832 5828 5824 5821 5817 5813 5809 5805 5800 5795 5791 5786 5781 5777 5772 5767 5762 5759 5754 5748 5745 5740 5735 5731 5726 5722 5719 5715
5874 5873 5871 5870 5868 5866 5864 5862 5860 5858 5855 5852 5850 5846 5843 5840 5836 5832 5828 5825 5820 5816 5812 5808 5803 5797 5793 5789 5784 5779 5775 5770 5765 5759 5755 5751 5745 5741 5737 5733 5728 5723 5718 5713 5710
5874 5873 5872 5870 5869 5868 5864 5862 5860 5858 5855 5853 5849 5846 5843 5840 5836 5832 5828 5823 5818 5814 5810 5805 5801 5795 5791 5787 5782 5777 5772 5767 5762 5756 5752 5748 5744 5739 5734 5729 5725 5720 5715 5710 5705
5874 5873 5871 5870 5870 5867 5865 5862 5860 5857 5855 5853 5849 5846 5843 5839 5836 5831 5826 5822 5817 5813 5808 5803 5798 5794 5789 5785 5780 5775 5770 5765 5760 5754 5749 5744 5741 5736 5731 5726 5722 5717 5713 5708 5703
5874 5872 5871 5870 5868 5866 5864 5861 5859 5856 5854 5852 5848 5844 5840 5838 5834 5829 5824 5819 5814 5810 5806 5802 5796 5792 5787 5782 5777 5773 5767 5761 5757 5752 5748 5743 5737 5733 5728 5724 5719 5714 5709 5705 5700
5873 5871 5870 5869 5867 5865 5862 5860 5858 5856 5852 5850 5846 5842 5839 5834 5830 5825 5821 5816 5812 5807 5803 5799 5794 5789 5785 5779 5774 5769 5764 5759 5753 5749 5745 5739 5734 5730 5725 5721 5716 5711 5706 5701 5696
5870 5869 5868 5866 5865 5862 5860 5858 5856 5853 5851 5848 5843 5839 5835 5830 5826 5821 5817 5813 5809 5806 5800 5795 5790 5786 5781 5776 5771 5765 5760 5755 5750 5744 5741 5737 5731 5727 5722 5718 5713 5709 5704 5699 5694
5867 5866 5865 5863 5861 5859 5857 5855 5853 5850 5846 5843 5840 5836 5831 5827 5823 5819 5815 5810 5806 5801 5796 5792 5786 5781 5777 5772 5767 5761 5756 5751 5745 5741 5738 5735 5729 5723 5718 5714 5710 5704 5700 5695 5690
5862 5862 5861 5860 5858 5855 5854 5852 5849 5846 5843 5840 5836 5832 5828 5824 5820 5815 5811 5807 5802 5797 5792 5786 5783 5776 5772 5767 5762 5756 5752 5747 5742 5737 5732 5728 5725 5718 5713 5710 5706 5700 5696 5690 5686
5856 5857 5856 5855 5853 5851 5850 5847 5844 5841 5838 5835 5832 5828 5823 5819 5815 5811 5806 5802 5797 5792 5786 5781 5777 5771 5766 5762 5757 5752 5747 5742 5736 5732 5727 5722 5722 5715 5709 5705 5700 5694 5689 5684 5679
5852 5851 5851 5849 5848 5846 5844 5842 5839 5836 5834 5831 5827 5823 5819 5814 5810 5806 5801 5797 5792 5786 5781 5775 5770 5767 5760 5756 5753 5748 5743 5738 5733 5727 5723 5716 5718 5709 5702 5698 5694 5689 5683 5678 5672
5846 5846 5844 5843 5843 5840 5838 5836 5834 5831 5828 5825 5821 5817 5813 5808 5804 5800 5795 5791 5786 5780 5774 5768 5763 5759 5754 5749 5746 5742 5737 5731 5725 5720 5716 5711 5711 5703 5695 5690 5686 5680 5675 5670 5664
5839 5839 5838 5837 5836 5834 5831 5829 5826 5824 5821 5818 5814 5811 5806 5802 5797 5794 5787 5784 5779 5773 5767 5761 5756 5749 5746 5743 5738 5734 5730 5725 5720 5716 5711 5705 5701 5697 5687 5682 5678 5672 5666 5660 5654
5833 5832 5831 5829 5828 5827 5824 5822 5819 5817 5814 5811 5807 5804 5800 5796 5790 5786 5781 5777 5771 5765 5759 5752 5749 5743 5740 5735 5729 5728 5722 5717 5714 5710 5703 5702 5692 5691 5679 5673 5668 5661 5656 5652 5644
5824 5824 5823 5822 5821 5819 5817 5815 5812 5809 5807 5804 5801 5796 5792 5787 5782 5778 5773 5767 5762 5756 5748 5743 5740 5734 5733 5728 5723 5721 5716 5710 5704 5702 5692 5693 5683 5679 5672 5665 5659 5653 5646 5640 5635
5817 5816 5815 5814 5812 5811 5809 5808 5805 5801 5798 5796 5791 5787 5783 5778 5772 5768 5763 5758 5753 5747 5739 5735 5730 5725 5725 5720 5714 5712 5708 5702 5696 5691 5684 5678 5675 5667 5662 5654 5647 5640 5634 5628 5623
5809 5808 5806 5806 5804 5803 5801 5798 5797 5794 5791 5787 5783 5778 5774 5769 5763 5758 5754 5749 5742 5735 5730 5725 5720 5715 5714 5710 5704 5703 5697 5691 5686 5680 5674 5668 5663 5655 5650 5642 5635 5629 5623 5617 5612